[[{"header":{"parameterUnit":"m.s-1","parameterCategory":1,"la1":30.2991,"la2":30.254,"lo1":-89.0895,"lo2":-89.0444,"dy":0.0017,"dx":0.0017,"nx":28,"ny":28,"refTime":"2024-03-15T21:00:00:Z","depth":0,"parameterNumber":2,"parameterNumberName":"U-component_of_WINDS"},"data":[0,0,0,0,0,0,0,0,0,0,0,0,0,0,0,0,0,0,0,0,0,0,0,0,0,0,0,0,0,0,0,0,0,0,0,0,0,0,0,0,0,0,0,0,0,0,0,0,0,0,0,0,0,0,0,0,0,0,-0.2096,-0.2096,0,-0.2067,-0.2067,-0.2067,-0.2055,-0.2055,-0.2055,-0.2055,-0.2026,-0.2026,-0.2025,0,0,0,0,0,0,0,0,0,0,0,0,0,-0.2144,-0.2143,-0.2096,-0.2096,-0.2095,-0.2067,-0.2067,-0.2066,-0.2055,-0.2055,-0.2055,-0.2056,-0.2027,-0.2026,-0.2025,0,0,0,0,0,0,0,0,0,0,0,0,0,-0.212,-0.2143,-0.2096,-0.2086,-0.2085,-0.2067,-0.2067,-0.2066,-0.2055,-0.2055,-0.2055,-0.2056,-0.2027,-0.2026,-0.2025,-0.2014,0,0,-0.2021,-0.202,0,0,0,0,0,0,0,0,-0.2121,-0.2118,-0.2088,-0.2087,-0.2086,-0.2065,-0.2073,-0.2049,-0.2055,-0.2067,-0.2056,-0.2056,-0.2039,-0.2037,-0.2031,-0.2013,-0.2012,-0.2021,-0.202,-0.2019,-0.2019,0,0,0,0,0,0,0,-0.2123,-0.2119,-0.2085,-0.2088,-0.2086,-0.2084,-0.2081,-0.2068,-0.2053,-0.2066,-0.2065,-0.2061,-0.2039,-0.2033,-0.2031,-0.2011,-0.2021,-0.202,-0.2019,-0.2018,-0.1986,-0.1986,0,0,0,0,0,0,-0.2126,-0.2121,-0.2086,-0.2084,-0.2104,-0.2083,-0.208,-0.2072,-0.2053,-0.205,-0.2061,-0.2061,-0.2035,-0.2032,-0.2029,-0.2018,-0.2019,-0.2018,-0.2017,-0.1986,-0.1986,-0.1986,0,0,0,0,0,0,-0.2127,-0.2123,-0.2087,-0.2102,-0.2097,-0.2082,-0.2073,-0.2071,-0.2065,-0.205,-0.2047,-0.2058,-0.2035,-0.2031,-0.2019,-0.2016,-0.2018,-0.2016,-0.1986,-0.1986,-0.1986,-0.1993,0,0,0,0,0,0,-0.2129,-0.2123,-0.2119,-0.2102,-0.2097,-0.2076,-0.2073,-0.207,-0.2063,-0.2062,-0.2046,-0.2043,-0.2034,-0.2021,-0.2018,-0.2015,-0.2015,-0.1986,-0.1986,-0.1986,-0.1993,-0.1993,-0.1994,0,0,0,0,0,-0.213,-0.2121,-0.2118,-0.2114,-0.209,-0.2076,-0.2072,-0.2063,-0.2062,-0.2058,-0.2049,-0.2044,-0.2017,-0.202,-0.2016,-0.2013,-0.1987,-0.1986,-0.1986,-0.1993,-0.1993,-0.1994,0,0,0,0,0,0,-0.2137,-0.2119,-0.2115,-0.2101,-0.209,-0.2074,-0.2067,-0.2063,-0.2052,-0.2052,-0.204,-0.2037,-0.2026,-0.2018,-0.2021,-0.2003,-0.2002,-0.2001,-0.2008,-0.2008,-0.2009,-0.2011,-0.2014,0,0,0,0,0,-0.2137,-0.2127,-0.2111,-0.21,-0.2095,-0.2082,-0.2075,-0.2069,-0.2058,-0.2053,-0.2042,-0.2032,-0.2021,-0.2015,-0.2004,-0.1992,-0.199,-0.1989,-0.1989,-0.1989,-0.1988,-0.1984,-0.1984,-0.1985,-0.1985,-0.1985,0,0,-0.2137,-0.2125,-0.2119,-0.2101,-0.2092,-0.2082,-0.2078,-0.2067,-0.206,-0.2051,-0.2039,-0.2031,-0.2019,-0.2007,-0.2002,-0.2001,-0.1988,-0.1989,-0.1989,-0.1988,-0.1984,-0.1983,-0.1983,-0.1985,-0.1985,-0.1985,0,0,-0.2131,-0.2121,-0.2111,-0.2103,-0.2089,-0.2081,-0.2079,-0.2064,-0.2059,-0.2047,-0.2041,-0.2033,-0.2014,-0.2006,-0.2,-0.1994,-0.199,-0.1991,-0.1992,-0.1988,-0.1988,-0.1988,-0.1987,-0.1987,-0.1991,-0.1991,-0.1991,0,-0.2132,-0.2116,-0.2107,-0.2097,-0.209,-0.2082,-0.2073,-0.2065,-0.2049,-0.2045,-0.2044,-0.2023,-0.2014,-0.2001,-0.2,-0.1995,-0.1993,-0.1993,-0.1988,-0.1988,-0.1988,-0.1987,-0.1987,-0.1991,-0.1991,-0.1991,-0.1991,0,-0.2119,-0.2108,-0.2102,-0.2088,-0.208,-0.2071,-0.2061,-0.2055,-0.205,-0.2043,-0.2032,-0.2021,-0.2009,-0.2006,-0.2,-0.1993,-0.1993,-0.1991,-0.1989,-0.1988,-0.1987,-0.1987,-0.1991,-0.1991,-0.1991,-0.1991,0,0,-0.2114,-0.2097,-0.2095,-0.2089,-0.2075,-0.2067,-0.2059,-0.2047,-0.2043,-0.2033,-0.2026,-0.2012,-0.201,-0.2003,-0.1997,-0.1994,-0.1992,-0.1992,-0.1991,-0.1993,-0.1985,-0.1988,-0.1987,-0.1989,-0.1989,-0.1989,-0.1987,0,-0.2107,-0.209,-0.2083,-0.207,-0.2062,-0.2056,-0.2049,-0.204,-0.2034,-0.2026,-0.202,-0.201,-0.2008,-0.2004,-0.2,-0.1993,-0.199,-0.1993,-0.1984,-0.1984,-0.1987,-0.1986,-0.1988,-0.1986,-0.1986,-0.1986,-0.1986,0,-0.2095,-0.2086,-0.2073,-0.2062,-0.2058,-0.2052,-0.2042,-0.2035,-0.2026,-0.2022,-0.2015,-0.201,-0.2003,-0.2002,-0.1992,-0.1994,-0.199,-0.1987,-0.1986,-0.1985,-0.1985,-0.1986,-0.1985,-0.1985,-0.1985,-0.1985,-0.1985,0,-0.2094,-0.2079,-0.2069,-0.2065,-0.2052,-0.2048,-0.2043,-0.2034,-0.2028,-0.2021,-0.2017,-0.2008,-0.2004,-0.1998,-0.1991,-0.1991,-0.1982,-0.1981,-0.198,-0.198,-0.1977,-0.1978,-0.1977,-0.1975,-0.1975,-0.1975,-0.1975,0,-0.2087,-0.2079,-0.2069,-0.2063,-0.2055,-0.2048,-0.2041,-0.2035,-0.2028,-0.2022,-0.2016,-0.2011,-0.2002,-0.1996,-0.1991,-0.1985,-0.1982,-0.198,-0.1979,-0.198,-0.1981,-0.1977,-0.1978,-0.1975,-0.1975,-0.1975,-0.1975,0,-0.2084,-0.2077,-0.2066,-0.2056,-0.2054,-0.2048,-0.204,-0.2035,-0.203,-0.2022,-0.202,-0.2012,-0.2005,-0.1998,-0.1988,-0.1985,-0.1979,-0.1977,-0.1982,-0.1981,-0.198,-0.1981,-0.1977,-0.1977,-0.1975,-0.1975,-0.1975,0,-0.2079,-0.2073,-0.2063,-0.2059,-0.2054,-0.2047,-0.2042,-0.2036,-0.2031,-0.2022,-0.2018,-0.2011,-0.2005,-0.1994,-0.1988,-0.1981,-0.1979,-0.1979,-0.1978,-0.1981,-0.198,-0.1981,-0.1981,-0.1979,-0.1979,-0.1979,-0.1979,0,-0.2072,-0.207,-0.2063,-0.2055,-0.205,-0.2044,-0.2037,-0.2034,-0.2027,-0.2022,-0.2015,-0.2011,-0.2002,-0.1995,-0.1988,-0.1984,-0.1981,-0.1979,-0.1979,-0.198,-0.1984,-0.1983,-0.1983,-0.1979,-0.1979,-0.1979,-0.1979,-0.1979,-0.2068,-0.2064,-0.2057,-0.205,-0.2045,-0.204,-0.2035,-0.203,-0.2024,-0.2017,-0.2014,-0.2007,-0.2001,-0.1992,-0.1988,-0.1983,-0.1982,-0.1981,-0.1981,-0.1981,-0.1982,-0.1985,-0.1982,-0.1982,-0.1982,-0.1982,-0.1982,0,-0.2062,-0.2058,-0.2052,-0.2044,-0.2039,-0.2037,-0.2031,-0.2027,-0.2022,-0.2016,-0.2011,-0.2004,-0.1999,-0.1993,-0.1987,-0.1985,-0.1984,-0.1984,-0.1984,-0.1984,-0.1983,-0.1984,-0.1985,-0.1985,-0.1985,-0.1985,-0.1985,-0.1985,-0.2058,-0.2051,-0.2048,-0.2039,-0.2035,-0.2029,-0.2026,-0.2022,-0.2018,-0.2011,-0.2007,-0.2003,-0.1998,-0.1993,-0.1988,-0.1987,-0.1985,-0.1986,-0.1984,-0.1984,-0.1983,-0.1983,-0.1984,-0.1986,-0.1986,-0.1986,-0.1986,-0.1986]},{"header":{"parameterUnit":"m.s-1","parameterCategory":1,"la1":30.2991,"la2":30.254,"lo1":-89.0895,"lo2":-89.0444,"dy":0.0017,"dx":0.0017,"nx":28,"ny":28,"refTime":"2024-03-15T21:00:00:Z","depth":0,"parameterNumber":3,"parameterNumberName":"V-component_of_WINDS"},"data":[0,0,0,0,0,0,0,0,0,0,0,0,0,0,0,0,0,0,0,0,0,0,0,0,0,0,0,0,0,0,0,0,0,0,0,0,0,0,0,0,0,0,0,0,0,0,0,0,0,0,0,0,0,0,0,0,0,0,0.3987,0.3988,0,0.4138,0.414,0.4141,0.4193,0.4192,0.4191,0.4191,0.4347,0.4351,0.4356,0,0,0,0,0,0,0,0,0,0,0,0,0,0.3742,0.3746,0.3987,0.3989,0.399,0.4138,0.414,0.4142,0.4193,0.4192,0.4191,0.419,0.4345,0.4351,0.4356,0,0,0,0,0,0,0,0,0,0,0,0,0,0.3866,0.3748,0.3986,0.4033,0.4039,0.4137,0.414,0.4142,0.4193,0.4192,0.4191,0.419,0.4343,0.435,0.4357,0.4419,0,0,0.4379,0.4382,0,0,0,0,0,0,0,0,0.3859,0.3875,0.4025,0.403,0.4037,0.4145,0.4111,0.4235,0.4193,0.4135,0.4191,0.419,0.428,0.4293,0.4323,0.4427,0.4433,0.4379,0.4384,0.4387,0.4389,0,0,0,0,0,0,0,0.3851,0.3869,0.4047,0.4027,0.4034,0.4047,0.4064,0.4135,0.4211,0.414,0.4144,0.4161,0.4284,0.4316,0.4327,0.4436,0.4379,0.4385,0.439,0.4393,0.4596,0.4597,0,0,0,0,0,0,0.3834,0.3862,0.4042,0.4051,0.3944,0.4052,0.4071,0.4112,0.421,0.4224,0.4161,0.4163,0.4304,0.4319,0.4333,0.4411,0.4387,0.4393,0.4397,0.4595,0.4596,0.4597,0,0,0,0,0,0,0.3828,0.385,0.4036,0.3958,0.3982,0.4058,0.4103,0.4115,0.4148,0.4227,0.4241,0.418,0.4304,0.4323,0.4397,0.4417,0.4396,0.4403,0.4593,0.4595,0.4597,0.4568,0,0,0,0,0,0,0.3821,0.3847,0.3872,0.3958,0.3986,0.4097,0.4104,0.4119,0.4159,0.4162,0.4248,0.4262,0.4305,0.4386,0.4404,0.4426,0.4408,0.4592,0.4594,0.4596,0.4568,0.4569,0.4569,0,0,0,0,0,0.3812,0.3858,0.3873,0.3894,0.4018,0.4098,0.4115,0.4163,0.4161,0.4186,0.4237,0.4259,0.4412,0.4393,0.4414,0.4439,0.4591,0.4594,0.4596,0.4567,0.4568,0.4569,0,0,0,0,0,0,0.3774,0.3871,0.3888,0.3963,0.4022,0.4107,0.414,0.4163,0.4225,0.4225,0.4283,0.4302,0.4371,0.4413,0.439,0.4503,0.4503,0.4509,0.4473,0.4475,0.4476,0.4464,0.4414,0,0,0,0,0,0.3774,0.3831,0.3912,0.3971,0.3999,0.4064,0.4101,0.4133,0.4197,0.4222,0.4279,0.434,0.4401,0.4441,0.4502,0.4574,0.4593,0.4601,0.4602,0.4602,0.4607,0.4647,0.4651,0.4606,0.4606,0.4606,0,0,0.3776,0.3835,0.3868,0.3965,0.4014,0.4071,0.4085,0.4146,0.4188,0.4232,0.4305,0.4348,0.442,0.4492,0.4527,0.4529,0.4624,0.4606,0.4605,0.461,0.465,0.4654,0.4657,0.4608,0.4607,0.4607,0,0,0.3807,0.3858,0.3911,0.396,0.4034,0.4077,0.409,0.4171,0.4201,0.4275,0.4308,0.436,0.4465,0.4515,0.4553,0.4601,0.4623,0.4619,0.4624,0.4662,0.4665,0.4669,0.4684,0.4689,0.4624,0.4624,0.4624,0,0.3799,0.3886,0.3936,0.3994,0.4035,0.4076,0.413,0.4175,0.4266,0.4293,0.4294,0.4426,0.4477,0.4561,0.4572,0.4603,0.4618,0.461,0.4661,0.4665,0.4668,0.4684,0.469,0.4623,0.4623,0.4623,0.4623,0,0.3872,0.3931,0.3966,0.405,0.4096,0.4151,0.421,0.4249,0.4277,0.4319,0.4393,0.4456,0.453,0.4553,0.4581,0.464,0.4639,0.4649,0.465,0.4671,0.4686,0.4693,0.4622,0.4622,0.4622,0.4623,0,0,0.3883,0.3994,0.4006,0.4044,0.4128,0.4175,0.4232,0.4304,0.4336,0.4397,0.4445,0.4533,0.4543,0.4587,0.4621,0.4654,0.4685,0.4661,0.4663,0.4662,0.4753,0.4743,0.4749,0.4701,0.4702,0.4703,0.4746,0,0.3924,0.4027,0.4073,0.4155,0.421,0.4249,0.4299,0.4355,0.4396,0.4449,0.4494,0.4555,0.4564,0.459,0.4625,0.4674,0.4704,0.4672,0.4746,0.4748,0.4726,0.4758,0.4749,0.4786,0.4753,0.4754,0.4755,0,0.3986,0.4045,0.4132,0.4208,0.4233,0.4276,0.4344,0.4395,0.4459,0.4487,0.4535,0.4567,0.4628,0.4624,0.4708,0.4685,0.4718,0.4747,0.4749,0.4758,0.4752,0.4766,0.4799,0.4804,0.4765,0.4764,0.4763,0,0.3983,0.4085,0.415,0.4182,0.4272,0.4302,0.4341,0.4405,0.4444,0.4504,0.453,0.4596,0.4632,0.4683,0.4732,0.4725,0.4811,0.4812,0.4834,0.4833,0.485,0.4848,0.4888,0.4873,0.4873,0.4873,0.4873,0,0.4023,0.4075,0.415,0.419,0.4248,0.43,0.4357,0.4399,0.4455,0.4503,0.4542,0.4586,0.4649,0.4701,0.474,0.4803,0.4819,0.4843,0.4852,0.4839,0.4836,0.4861,0.4859,0.4874,0.4874,0.4874,0.4873,0,0.403,0.4083,0.4156,0.4235,0.4256,0.4295,0.4363,0.4403,0.4445,0.4506,0.4523,0.4589,0.4653,0.4707,0.4791,0.4817,0.4881,0.4893,0.4859,0.4864,0.4883,0.488,0.494,0.495,0.4928,0.4929,0.4929,0,0.4052,0.4092,0.4175,0.4209,0.4247,0.4303,0.4343,0.4396,0.4436,0.4512,0.4542,0.4608,0.4664,0.4763,0.4819,0.4883,0.4896,0.4913,0.4906,0.4891,0.4895,0.4892,0.4896,0.4913,0.4913,0.4913,0.4913,0,0.4084,0.4107,0.4163,0.4227,0.4273,0.4327,0.4382,0.4408,0.4471,0.4514,0.4579,0.4622,0.4707,0.4771,0.4841,0.4882,0.4908,0.4915,0.4923,0.4909,0.4887,0.4898,0.4859,0.4913,0.4913,0.4913,0.4913,0.4913,0.4098,0.4135,0.4198,0.4258,0.4305,0.4354,0.4395,0.4442,0.4497,0.4569,0.4597,0.4663,0.4726,0.4822,0.4863,0.4915,0.4919,0.4931,0.4934,0.4936,0.4933,0.4879,0.4928,0.4928,0.4928,0.4928,0.4928,0,0.4131,0.4173,0.4228,0.4302,0.4349,0.4369,0.443,0.4468,0.4526,0.4582,0.4635,0.4709,0.4772,0.4832,0.4897,0.4927,0.4941,0.4943,0.4941,0.4949,0.4927,0.4913,0.4931,0.4931,0.4931,0.4931,0.4931,0.4931,0.4153,0.4216,0.4246,0.4332,0.4375,0.4439,0.4472,0.4518,0.4562,0.4643,0.4695,0.4733,0.4791,0.4861,0.4919,0.4935,0.4957,0.4955,0.4974,0.4952,0.4951,0.495,0.4937,0.496,0.496,0.4992,0.4993,0.4993]}]]